sim
Sign-in with your pilot id or email,
or register
Callsign
Passwort

Schedule Details

Flight Number: RYR8421
Departure: Edinburgh Airport (EGPH) at 12:45
Arrival: Fuerteventura Airport (GCFV) at 17:25
Route: Ryanair Passenger Schedule. Enter filed route here before submitting Pirep.

Weather Information
Getting current METAR information for EGPH 211720Z 22015KT 9999 VCSH FEW025TCU 16/12 Q1015
Getting current METAR information for GCFV 211700Z 05017KT CAVOK 25/20 Q1014

Schedule Frequency

Route Map